STARLINK-32670 (62210 NORAD) Tracking and Keplerian Element Data

This shows tracking and keplerian element data for the satellite.

Feedback or suggestion? Click here.




ElementValue
Catalog62210
NameSTARLINK-32670
Epoch Orbit946
Epoch Day34.28535628
Epoch Year2025
RAAN7.5486
Inclination43.0006
Eccentricity5.48E-05
Argument of Perigee239.8997
Mean Anonmoly120.1802
Mean Motion15.32092987
Decay Rate-1.63E-06
L11 62210U 24229U 25034.28535628 -.00000163 00000+0 35493-5 0 9992
L22 62210 43.0006 7.5486 0000548 239.8997 120.1802 15.32092987 9469



Live tracking and technical data element details for STARLINK-32670 (NORAD 62210). STARLINK-32670 can be tracked NOW for your location showing map with azimuth and elevation plus other details from your city location.







IsCatalogInMostPopularTable: catalog: 62210, numindb: 13
Update: records affected: 1



GetName: 62210 STARLINK-32670

Hit Count: updated at: Sat, 24 May 2025 16:38:31 GMT